Вернуться в каталог

STARLINK-3907

АктивенСвязьVLEO
NORAD 52501·PAYLOAD·🇺🇸 United States

Запущен May 6, 2022 с Cape Canaveral Space Force Station

Loading…

Ближайшие Пролёты (ближайшие 24 часа)

TLE

СвежийSource: CelesTrak SupGP

Эпоха: Sep 14, 2026, 21:03 UTC

1 52501C 22049BC  26257.87756944  .00040253  00000+0  12217-2 0  2577
2 52501  53.1574 270.3360 0001290  85.2410 244.5216 15.33521711    17

Отслеживайте STARLINK-3907 в реальном времени с AllMySat

Download on the App Store